Time,TemperatureF,DewpointF,PressureIn,WindDirection,WindDirectionDegrees,WindSpeedMPH,WindSpeedGustMPH,Humidity,HourlyPrecipIn,Conditions,Clouds,dailyrainin,SoftwareType,DateUTC
2013-09-11 00:00:00,56.7,50.9,30.36,WSW,258,8.1,8.1,81,0.00,BKN,FEW,0.00,WeatherDisplay:10.37,2013-09-10 23:00:00,
2013-09-11 00:05:00,56.7,50.9,30.36,WSW,258,3.5,4.1,81,0.00,BKN,FEW,0.00,WeatherDisplay:10.37,2013-09-10 23:05:00,
2013-09-11 00:10:00,56.7,50.9,30.36,WSW,258,3.5,4.1,81,0.00,BKN,FEW,0.00,WeatherDisplay:10.37,2013-09-10 23:10:00,
2013-09-11 00:15:00,56.5,50.7,30.36,WSW,258,5.8,5.8,81,0.00,BKN,FEW,0.00,WeatherDisplay:10.37,2013-09-10 23:15:00,
2013-09-11 00:20:00,56.7,50.9,30.36,WSW,258,9.2,9.2,81,0.00,BKN,FEW,0.00,WeatherDisplay:10.37,2013-09-10 23:20:00,
2013-09-11 07:58:00,54.3,51.7,30.06,West,280,5.8,5.8,91,0.00,CLR,FEW,0.00,WeatherDisplay:10.37,2013-09-11 06:58:00,
2013-09-11 07:59:00,54.3,51.7,30.06,West,280,5.8,5.8,91,0.00,BKN,FEW,0.00,WeatherDisplay:10.37,2013-09-11 06:59:00,
2013-09-11 08:04:00,54.3,51.7,30.27,WSW,258,6.3,6.3,91,0.00,-RA,FEW,0.00,WeatherDisplay:10.37,2013-09-11 07:04:00,
2013-09-11 08:09:00,54.3,51.7,30.27,WSW,258,5.8,5.8,91,0.00,-RA,FEW,0.00,WeatherDisplay:10.37,2013-09-11 07:09:00,
2013-09-11 08:14:00,54.1,51.6,30.27,WSW,258,6.9,6.9,91,0.00,-RA,FEW,0.00,WeatherDisplay:10.37,2013-09-11 07:14:00,
2013-09-11 08:19:00,54.1,51.6,30.26,WSW,258,4.6,4.6,91,0.00,-RA,FEW,0.00,WeatherDisplay:10.37,2013-09-11 07:19:00,
2013-09-11 08:24:00,54.1,51.6,30.26,WSW,258,4.6,4.7,91,0.00,-RA,FEW,0.00,WeatherDisplay:10.37,2013-09-11 07:24:00,
2013-09-11 08:29:00,54.3,52.0,30.26,West,280,3.5,4.2,92,0.00,-RA,FEW,0.00,WeatherDisplay:10.37,2013-09-11 07:29:00,
2013-09-11 08:34:00,54.5,52.2,30.26,WSW,258,3.6,3.6,92,0.00,-RA,FEW,0.00,WeatherDisplay:10.37,2013-09-11 07:34:00,
2013-09-11 08:39:00,54.3,52.0,30.26,WSW,258,5.8,5.8,92,0.00,-RA,FEW,0.00,WeatherDisplay:10.37,2013-09-11 07:39:00,
2013-09-11 08:44:00,54.3,52.0,30.26,West,280,4.0,4.0,92,0.00,-RA,FEW,0.00,WeatherDisplay:10.37,2013-09-11 07:44:00,
2013-09-11 08:49:00,54.5,52.2,30.26,WSW,258,8.1,8.1,92,0.00,-RA,FEW,0.00,WeatherDisplay:10.37,2013-09-11 07:49:00,
2013-09-11 08:54:00,54.9,52.6,30.26,WSW,258,5.8,5.8,92,0.00,-RA,FEW,0.00,WeatherDisplay:10.37,2013-09-11 07:54:00,
2013-09-11 08:59:00,54.7,52.4,30.27,West,280,10.4,10.4,92,0.00,-RA,FEW,0.00,WeatherDisplay:10.37,2013-09-11 07:59:00,
2013-09-11 09:04:00,54.9,52.6,30.27,West,280,7.0,7.0,92,0.00,-RA,FEW,0.00,WeatherDisplay:10.37,2013-09-11 08:04:00,
2013-09-11 09:09:00,55.0,52.8,30.27,WSW,258,4.2,4.6,92,0.00,-RA,FEW,0.00,WeatherDisplay:10.37,2013-09-11 08:09:00,
2013-09-11 09:14:00,55.2,52.9,30.27,WSW,258,8.1,8.1,92,0.00,-RA,FEW,0.00,WeatherDisplay:10.37,2013-09-11 08:14:00,
2013-09-11 09:19:00,55.2,52.9,30.27,WSW,258,8.1,8.1,92,0.00,-RA,FEW,0.00,WeatherDisplay:10.37,2013-09-11 08:19:00,
2013-09-11 09:24:00,55.0,52.8,30.27,WSW,258,5.1,5.4,92,0.00,-RA,FEW,0.00,WeatherDisplay:10.37,2013-09-11 08:24:00,
2013-09-11 09:29:00,55.6,53.3,30.27,ESE,122,5.8,5.8,92,0.00,-RA,FEW,0.00,WeatherDisplay:10.37,2013-09-11 08:29:00,
2013-09-11 09:34:00,55.6,53.3,30.27,ESE,122,9.2,9.2,92,0.00,-RA,FEW,0.00,WeatherDisplay:10.37,2013-09-11 08:34:00,
2013-09-11 09:39:00,55.6,53.3,30.26,WSW,258,3.5,5.1,92,0.00,-RA,FEW,0.00,WeatherDisplay:10.37,2013-09-11 08:39:00,
2013-09-11 09:44:00,55.6,53.3,30.26,WSW,258,6.9,6.9,92,0.00,-RA,FEW,0.00,WeatherDisplay:10.37,2013-09-11 08:44:00,
2013-09-11 09:49:00,55.8,53.5,30.26,WSW,258,6.9,6.9,92,0.00,-RA,FEW,0.00,WeatherDisplay:10.37,2013-09-11 08:49:00,
2013-09-11 09:54:00,55.8,53.5,30.26,WSW,258,6.9,6.9,92,0.00,-RA,FEW,0.00,WeatherDisplay:10.37,2013-09-11 08:54:00,
2013-09-11 09:59:00,55.9,53.6,30.25,WSW,258,6.6,6.6,92,0.00,-RA,FEW,0.00,WeatherDisplay:10.37,2013-09-11 08:59:00,
2013-09-11 10:05:00,55.8,53.5,30.25,WSW,258,3.5,4.7,92,0.00,BKN,FEW,0.00,WeatherDisplay:10.37,2013-09-11 09:05:00,
2013-09-11 10:09:00,55.9,53.6,30.25,WSW,258,3.5,4.7,92,0.00,BKN,FEW,0.00,WeatherDisplay:10.37,2013-09-11 09:09:00,
2013-09-11 10:15:00,56.3,54.0,30.25,WSW,258,6.9,6.9,92,0.00,BKN,FEW,0.00,WeatherDisplay:10.37,2013-09-11 09:15:00,
2013-09-11 10:20:00,56.3,54.0,30.26,West,280,4.6,4.8,92,0.00,BKN,FEW,0.00,WeatherDisplay:10.37,2013-09-11 09:20:00,
2013-09-11 10:25:00,56.5,54.5,30.26,WSW,258,7.1,7.1,93,0.00,BKN,FEW,0.00,WeatherDisplay:10.37,2013-09-11 09:25:00,
2013-09-11 10:30:00,56.7,54.7,30.26,WSW,258,9.2,9.2,93,0.00,BKN,FEW,0.00,WeatherDisplay:10.37,2013-09-11 09:30:00,
2013-09-11 10:35:00,56.8,54.8,30.26,SW,235,8.1,8.1,93,0.00,BKN,FEW,0.00,WeatherDisplay:10.37,2013-09-11 09:35:00,
2013-09-11 10:40:00,57.4,55.1,30.26,WSW,258,9.2,9.2,92,0.00,BKN,FEW,0.00,WeatherDisplay:10.37,2013-09-11 09:40:00,
2013-09-11 10:45:00,57.6,55.3,30.26,WSW,258,8.1,8.1,92,0.00,BKN,FEW,0.00,WeatherDisplay:10.37,2013-09-11 09:45:00,
2013-09-11 10:50:00,57.7,55.4,30.26,WSW,258,8.1,8.1,92,0.00,BKN,FEW,0.00,WeatherDisplay:10.37,2013-09-11 09:50:00,
2013-09-11 10:55:00,57.7,55.4,30.26,WSW,258,8.1,8.1,92,0.00,BKN,FEW,0.00,WeatherDisplay:10.37,2013-09-11 09:55:00,
2013-09-11 11:00:00,57.7,55.4,30.25,West,280,7.0,7.0,92,0.00,BKN,FEW,0.00,WeatherDisplay:10.37,2013-09-11 10:00:00,
2013-09-11 11:05:00,57.7,55.4,30.25,SE,145,5.8,5.8,92,0.00,-DZ,FEW,0.00,WeatherDisplay:10.37,2013-09-11 10:05:00,
2013-09-11 11:10:00,57.9,55.6,30.25,WSW,258,9.2,9.2,92,0.00,-DZ,FEW,0.00,WeatherDisplay:10.37,2013-09-11 10:10:00,
2013-09-11 11:15:00,57.9,55.6,30.25,WSW,258,10.4,10.4,92,0.00,-DZ,FEW,0.00,WeatherDisplay:10.37,2013-09-11 10:15:00,
2013-09-11 11:20:00,58.3,56.0,30.24,West,280,10.4,10.4,92,0.00,-DZ,FEW,0.00,WeatherDisplay:10.37,2013-09-11 10:20:00,
2013-09-11 11:25:00,58.5,56.1,30.24,WSW,258,8.1,8.1,92,0.00,-DZ,FEW,0.00,WeatherDisplay:10.37,2013-09-11 10:25:00,
2013-09-11 11:30:00,58.6,56.3,30.24,WNW,302,10.4,10.4,92,0.00,-DZ,FEW,0.00,WeatherDisplay:10.37,2013-09-11 10:30:00,
2013-09-11 11:35:00,58.8,56.5,30.24,WSW,258,5.8,6.6,92,0.00,-DZ,FEW,0.00,WeatherDisplay:10.37,2013-09-11 10:35:00,
2013-09-11 11:40:00,59.0,56.7,30.24,WSW,258,9.2,9.2,92,0.00,-DZ,FEW,0.00,WeatherDisplay:10.37,2013-09-11 10:40:00,
2013-09-11 11:45:00,59.2,57.2,30.24,WSW,258,10.4,10.4,93,0.00,-DZ,FEW,0.00,WeatherDisplay:10.37,2013-09-11 10:45:00,
2013-09-11 11:50:00,59.2,56.9,30.24,WSW,258,7.2,7.2,92,0.00,-DZ,FEW,0.00,WeatherDisplay:10.37,2013-09-11 10:50:00,
2013-09-11 11:55:00,59.2,56.9,30.24,West,280,8.1,8.1,92,0.00,-DZ,FEW,0.00,WeatherDisplay:10.37,2013-09-11 10:55:00,
2013-09-11 12:00:00,59.2,56.9,30.24,West,280,8.3,8.3,92,0.00,-DZ,FEW,0.00,WeatherDisplay:10.37,2013-09-11 11:00:00,
2013-09-11 12:05:00,59.2,56.9,30.24,ESE,122,4.6,5.9,92,0.00,-DZ,FEW,0.00,WeatherDisplay:10.37,2013-09-11 11:05:00,
2013-09-11 12:10:00,59.2,56.9,30.24,ESE,122,4.6,5.9,92,0.00,-DZ,FEW,0.00,WeatherDisplay:10.37,2013-09-11 11:10:00,
2013-09-11 12:15:00,59.2,56.9,30.24,WSW,258,9.4,9.4,92,0.00,-DZ,FEW,0.00,WeatherDisplay:10.37,2013-09-11 11:15:00,
2013-09-11 12:20:00,59.2,56.9,30.23,WSW,258,9.2,9.2,92,0.00,-DZ,FEW,0.00,WeatherDisplay:10.37,2013-09-11 11:20:00,
2013-09-11 12:25:00,59.4,57.0,30.23,NW,325,9.8,9.8,92,0.00,-DZ,FEW,0.00,WeatherDisplay:10.37,2013-09-11 11:25:00,
2013-09-11 12:30:00,59.5,57.2,30.23,WSW,258,8.1,8.1,92,0.00,-DZ,FEW,0.00,WeatherDisplay:10.37,2013-09-11 11:30:00,
2013-09-11 12:35:00,59.5,57.2,30.23,WSW,258,10.4,10.4,92,0.00,-DZ,FEW,0.00,WeatherDisplay:10.37,2013-09-11 11:35:00,
2013-09-11 12:40:00,59.9,57.6,30.22,WSW,258,5.8,6.8,92,0.00,-DZ,FEW,0.00,WeatherDisplay:10.37,2013-09-11 11:40:00,
2013-09-11 12:45:00,60.1,57.7,30.22,WSW,258,6.9,6.9,92,0.00,-DZ,FEW,0.00,WeatherDisplay:10.37,2013-09-11 11:45:00,
2013-09-11 12:50:00,60.6,58.3,30.22,WSW,258,11.5,11.5,92,0.00,-DZ,FEW,0.00,WeatherDisplay:10.37,2013-09-11 11:50:00,
2013-09-11 12:55:00,61.0,58.3,30.22,WSW,258,8.7,8.7,91,0.00,-DZ,FEW,0.00,WeatherDisplay:10.37,2013-09-11 11:55:00,
2013-09-11 13:00:00,61.3,58.7,30.22,WSW,258,8.1,8.1,91,0.00,-DZ,FEW,0.00,WeatherDisplay:10.37,2013-09-11 12:00:00,
2013-09-11 13:05:00,61.5,58.9,30.22,WSW,258,13.8,13.8,91,0.00,BKN,FEW,0.00,WeatherDisplay:10.37,2013-09-11 12:05:00,
2013-09-11 13:10:00,61.5,58.9,30.22,ESE,122,8.1,8.1,91,0.00,BKN,FEW,0.00,WeatherDisplay:10.37,2013-09-11 12:10:00,
2013-09-11 13:15:00,61.9,58.9,30.22,ESE,122,7.1,7.1,90,0.00,BKN,FEW,0.00,WeatherDisplay:10.37,2013-09-11 12:15:00,
2013-09-11 13:20:00,62.1,59.1,30.22,ESE,122,12.7,12.7,90,0.00,BKN,FEW,0.00,WeatherDisplay:10.37,2013-09-11 12:20:00,
2013-09-11 13:25:00,62.4,59.1,30.22,WSW,258,13.5,13.5,89,0.00,BKN,FEW,0.00,WeatherDisplay:10.37,2013-09-11 12:25:00,
2013-09-11 13:30:00,62.8,59.5,30.22,WSW,258,11.5,11.5,89,0.00,BKN,FEW,0.00,WeatherDisplay:10.37,2013-09-11 12:30:00,
2013-09-11 13:35:00,62.8,59.5,30.22,ESE,122,13.8,13.8,89,0.00,BKN,FEW,0.00,WeatherDisplay:10.37,2013-09-11 12:35:00,
2013-09-11 13:40:00,62.6,59.3,30.23,West,280,11.5,11.5,89,0.00,BKN,FEW,0.00,WeatherDisplay:10.37,2013-09-11 12:40:00,
2013-09-11 13:45:00,63.0,59.7,30.23,SE,145,9.2,9.2,89,0.00,BKN,FEW,0.00,WeatherDisplay:10.37,2013-09-11 12:45:00,
2013-09-11 13:50:00,62.8,59.5,30.23,WSW,258,5.8,6.0,89,0.00,BKN,FEW,0.00,WeatherDisplay:10.37,2013-09-11 12:50:00,
2013-09-11 13:55:00,62.6,59.3,30.23,West,280,13.8,13.8,89,0.00,BKN,FEW,0.00,WeatherDisplay:10.37,2013-09-11 12:55:00,
2013-09-11 14:00:00,62.4,59.1,30.22,ESE,122,9.5,9.5,89,0.00,BKN,FEW,0.00,WeatherDisplay:10.37,2013-09-11 13:00:00,
2013-09-11 14:05:00,62.4,59.1,30.22,WSW,258,15.0,15.0,89,0.00,BKN,FEW,0.00,WeatherDisplay:10.37,2013-09-11 13:05:00,
2013-09-11 14:11:00,62.4,59.1,30.22,ESE,122,8.3,8.3,89,0.00,BKN,FEW,0.00,WeatherDisplay:10.37,2013-09-11 13:11:00,
2013-09-11 14:16:00,62.6,59.3,30.22,WSW,258,8.1,8.1,89,0.00,BKN,FEW,0.00,WeatherDisplay:10.37,2013-09-11 13:16:00,
2013-09-11 14:21:00,62.6,59.3,30.21,SE,145,11.5,11.5,89,0.00,BKN,FEW,0.00,WeatherDisplay:10.37,2013-09-11 13:21:00,
2013-09-11 14:26:00,62.8,59.5,30.21,WSW,258,10.4,10.4,89,0.00,BKN,FEW,0.00,WeatherDisplay:10.37,2013-09-11 13:26:00,
2013-09-11 14:31:00,63.0,59.7,30.21,ESE,122,10.4,10.4,89,0.00,BKN,FEW,0.00,WeatherDisplay:10.37,2013-09-11 13:31:00,
2013-09-11 14:36:00,63.1,59.8,30.21,WSW,258,13.8,13.8,89,0.00,BKN,FEW,0.00,WeatherDisplay:10.37,2013-09-11 13:36:00,
2013-09-11 14:41:00,63.1,59.8,30.20,NW,325,14.1,14.1,89,0.00,BKN,FEW,0.00,WeatherDisplay:10.37,2013-09-11 13:41:00,
2013-09-11 14:46:00,63.3,60.0,30.20,WSW,258,11.5,11.5,89,0.00,BKN,FEW,0.00,WeatherDisplay:10.37,2013-09-11 13:46:00,
2013-09-11 14:51:00,63.3,60.0,30.20,WNW,302,7.1,7.1,89,0.00,BKN,FEW,0.00,WeatherDisplay:10.37,2013-09-11 13:51:00,
2013-09-11 14:56:00,63.3,60.0,30.20,West,280,10.4,10.4,89,0.00,BKN,FEW,0.00,WeatherDisplay:10.37,2013-09-11 13:56:00,
2013-09-11 15:01:00,63.5,60.2,30.21,WSW,258,10.4,10.4,89,0.00,BKN,FEW,0.00,WeatherDisplay:10.37,2013-09-11 14:01:00,
2013-09-11 15:06:00,63.5,60.2,30.21,WSW,258,5.8,5.8,89,0.00,BKN,FEW,0.00,WeatherDisplay:10.37,2013-09-11 14:06:00,
2013-09-11 15:11:00,63.1,59.8,30.21,SE,145,6.8,6.8,89,0.00,BKN,FEW,0.00,WeatherDisplay:10.37,2013-09-11 14:11:00,
2013-09-11 15:16:00,63.1,60.2,30.21,WSW,258,10.4,10.4,90,0.00,BKN,FEW,0.00,WeatherDisplay:10.37,2013-09-11 14:16:00,
2013-09-11 15:21:00,63.1,60.2,30.21,WSW,258,4.6,5.2,90,0.00,BKN,FEW,0.00,WeatherDisplay:10.37,2013-09-11 14:21:00,
2013-09-11 15:26:00,63.0,60.3,30.21,WSW,258,5.8,5.8,91,0.00,BKN,FEW,0.00,WeatherDisplay:10.37,2013-09-11 14:26:00,
2013-09-11 15:31:00,63.1,60.5,30.21,WSW,258,6.9,6.9,91,0.00,BKN,FEW,0.00,WeatherDisplay:10.37,2013-09-11 14:31:00,
2013-09-11 15:36:00,63.0,60.3,30.21,WSW,258,4.6,4.6,91,0.00,BKN,FEW,0.00,WeatherDisplay:10.37,2013-09-11 14:36:00,
2013-09-11 15:41:00,63.1,60.8,30.20,NNE,32,4.6,4.6,92,0.00,BKN,FEW,0.00,WeatherDisplay:10.37,2013-09-11 14:41:00,
2013-09-11 15:46:00,63.0,60.6,30.20,West,280,5.8,5.8,92,0.00,BKN,FEW,0.00,WeatherDisplay:10.37,2013-09-11 14:46:00,
2013-09-11 15:51:00,63.0,60.6,30.20,WSW,258,3.5,3.7,92,0.00,BKN,FEW,0.00,WeatherDisplay:10.37,2013-09-11 14:51:00,
2013-09-11 15:56:00,63.0,60.6,30.20,WSW,258,5.8,5.8,92,0.00,BKN,FEW,0.00,WeatherDisplay:10.37,2013-09-11 14:56:00,
2013-09-11 16:01:00,62.8,60.4,30.19,WSW,258,6.9,6.9,92,0.00,-DZ,FEW,0.00,WeatherDisplay:10.37,2013-09-11 15:01:00,
2013-09-11 16:06:00,63.0,60.6,30.19,WSW,258,6.9,6.9,92,0.00,-DZ,FEW,0.00,WeatherDisplay:10.37,2013-09-11 15:06:00,
2013-09-11 16:11:00,63.0,60.6,30.19,West,280,8.1,8.1,92,0.00,-DZ,FEW,0.00,WeatherDisplay:10.37,2013-09-11 15:11:00,
2013-09-11 16:16:00,63.0,60.6,30.19,WSW,258,6.9,6.9,92,0.00,-DZ,FEW,0.00,WeatherDisplay:10.37,2013-09-11 15:16:00,
2013-09-11 16:21:00,63.0,60.6,30.19,West,280,6.8,6.8,92,0.00,-DZ,FEW,0.00,WeatherDisplay:10.37,2013-09-11 15:21:00,
2013-09-11 16:26:00,63.0,60.6,30.19,ENE,78,10.4,10.4,92,0.00,-DZ,FEW,0.00,WeatherDisplay:10.37,2013-09-11 15:26:00,
2013-09-11 16:31:00,63.1,60.8,30.19,WSW,258,8.1,8.1,92,0.00,-DZ,FEW,0.00,WeatherDisplay:10.37,2013-09-11 15:31:00,
2013-09-11 16:36:00,63.5,61.1,30.19,WSW,258,12.7,12.7,92,0.00,-DZ,FEW,0.00,WeatherDisplay:10.37,2013-09-11 15:36:00,
2013-09-11 16:41:00,63.5,61.1,30.19,WSW,258,8.1,8.1,92,0.00,-DZ,FEW,0.00,WeatherDisplay:10.37,2013-09-11 15:41:00,
2013-09-11 16:46:00,63.7,61.3,30.19,SE,145,9.2,9.2,92,0.00,-DZ,FEW,0.00,WeatherDisplay:10.37,2013-09-11 15:46:00,
2013-09-11 16:51:00,63.9,61.2,30.19,WSW,258,8.1,8.1,91,0.00,-DZ,FEW,0.00,WeatherDisplay:10.37,2013-09-11 15:51:00,
2013-09-11 16:56:00,63.9,61.2,30.19,West,280,11.5,11.5,91,0.00,-DZ,FEW,0.00,WeatherDisplay:10.37,2013-09-11 15:56:00,
2013-09-11 17:01:00,63.9,61.2,30.19,West,280,12.7,12.7,91,0.00,BKN,FEW,0.00,WeatherDisplay:10.37,2013-09-11 16:01:00,
2013-09-11 17:06:00,63.7,61.0,30.19,WSW,258,14.4,14.4,91,0.00,BKN,FEW,0.00,WeatherDisplay:10.37,2013-09-11 16:06:00,
2013-09-11 17:11:00,63.9,60.9,30.19,WSW,258,9.2,9.2,90,0.00,BKN,FEW,0.00,WeatherDisplay:10.37,2013-09-11 16:11:00,
2013-09-11 17:16:00,63.7,60.7,30.19,WSW,258,6.9,6.9,90,0.00,BKN,FEW,0.00,WeatherDisplay:10.37,2013-09-11 16:16:00,
2013-09-11 17:21:00,63.9,60.9,30.19,WSW,258,15.0,15.0,90,0.00,BKN,FEW,0.00,WeatherDisplay:10.37,2013-09-11 16:21:00,
2013-09-11 17:26:00,64.2,61.2,30.19,SW,235,10.4,10.4,90,0.00,BKN,FEW,0.00,WeatherDisplay:10.37,2013-09-11 16:26:00,
2013-09-11 17:32:00,64.2,61.2,30.19,WSW,258,5.8,5.8,90,0.00,BKN,FEW,0.00,WeatherDisplay:10.37,2013-09-11 16:32:00,
2013-09-11 17:37:00,64.2,61.2,30.19,WSW,258,8.1,8.1,90,0.00,BKN,FEW,0.00,WeatherDisplay:10.37,2013-09-11 16:37:00,
2013-09-11 17:42:00,64.2,61.2,30.18,WSW,258,6.9,6.9,90,0.00,BKN,FEW,0.00,WeatherDisplay:10.37,2013-09-11 16:42:00,
2013-09-11 17:47:00,64.2,61.2,30.18,WSW,258,8.1,8.1,90,0.00,BKN,FEW,0.00,WeatherDisplay:10.37,2013-09-11 16:47:00,
2013-09-11 17:52:00,64.4,61.4,30.18,SE,145,6.9,6.9,90,0.00,BKN,FEW,0.00,WeatherDisplay:10.37,2013-09-11 16:52:00,
2013-09-11 17:57:00,64.6,61.6,30.18,WSW,258,9.3,9.3,90,0.00,BKN,FEW,0.00,WeatherDisplay:10.37,2013-09-11 16:57:00,
2013-09-11 18:02:00,64.4,61.1,30.18,WNW,302,12.7,12.7,89,0.00,BKN,FEW,0.00,WeatherDisplay:10.37,2013-09-11 17:02:00,
2013-09-11 18:07:00,64.4,61.1,30.18,West,280,9.2,9.2,89,0.00,BKN,FEW,0.00,WeatherDisplay:10.37,2013-09-11 17:07:00,
2013-09-11 18:12:00,64.4,61.1,30.18,WSW,258,7.6,7.6,89,0.00,BKN,FEW,0.00,WeatherDisplay:10.37,2013-09-11 17:12:00,
2013-09-11 18:17:00,64.2,60.9,30.18,WSW,258,4.7,6.8,89,0.00,BKN,FEW,0.00,WeatherDisplay:10.37,2013-09-11 17:17:00,
2013-09-11 18:22:00,64.0,60.7,30.17,WSW,258,6.9,6.9,89,0.00,BKN,FEW,0.00,WeatherDisplay:10.37,2013-09-11 17:22:00,
2013-09-11 18:27:00,64.2,60.9,30.17,West,280,5.8,5.8,89,0.00,BKN,FEW,0.00,WeatherDisplay:10.37,2013-09-11 17:27:00,
2013-09-11 18:32:00,64.0,60.7,30.17,West,280,3.5,4.2,89,0.00,BKN,FEW,0.00,WeatherDisplay:10.37,2013-09-11 17:32:00,
2013-09-11 18:37:00,63.9,60.6,30.17,WSW,258,5.8,5.8,89,0.00,BKN,FEW,0.00,WeatherDisplay:10.37,2013-09-11 17:37:00,
2013-09-11 18:42:00,63.9,60.9,30.17,SE,145,4.6,4.6,90,0.00,BKN,FEW,0.00,WeatherDisplay:10.37,2013-09-11 17:42:00,
2013-09-11 18:47:00,63.7,60.7,30.17,WNW,302,6.9,6.9,90,0.00,BKN,FEW,0.00,WeatherDisplay:10.37,2013-09-11 17:47:00,
2013-09-11 18:52:00,63.7,60.7,30.17,WSW,258,9.2,9.2,90,0.00,BKN,FEW,0.00,WeatherDisplay:10.37,2013-09-11 17:52:00,
2013-09-11 18:57:00,63.7,60.7,30.17,West,280,3.5,4.5,90,0.00,BKN,FEW,0.00,WeatherDisplay:10.37,2013-09-11 17:57:00,
2013-09-11 19:02:00,63.9,60.9,30.18,WSW,258,6.9,6.9,90,0.00,BKN,FEW,0.00,WeatherDisplay:10.37,2013-09-11 18:02:00,
2013-09-11 19:07:00,63.7,60.7,30.18,ESE,122,3.5,4.1,90,0.00,BKN,FEW,0.00,WeatherDisplay:10.37,2013-09-11 18:07:00,
2013-09-11 19:12:00,63.9,60.9,30.18,West,280,8.1,8.1,90,0.00,BKN,FEW,0.00,WeatherDisplay:10.37,2013-09-11 18:12:00,
2013-09-11 19:17:00,63.7,60.7,30.18,WSW,258,10.4,10.4,90,0.00,BKN,FEW,0.00,WeatherDisplay:10.37,2013-09-11 18:17:00,
2013-09-11 19:22:00,63.5,60.2,30.17,NW,325,10.4,10.4,89,0.00,BKN,FEW,0.00,WeatherDisplay:10.37,2013-09-11 18:22:00,
2013-09-11 19:27:00,63.5,60.2,30.17,WSW,258,11.5,11.5,89,0.00,BKN,FEW,0.00,WeatherDisplay:10.37,2013-09-11 18:27:00,
2013-09-11 19:32:00,63.1,60.2,30.17,WSW,258,10.4,10.4,90,0.00,BKN,FEW,0.00,WeatherDisplay:10.37,2013-09-11 18:32:00,
2013-09-11 19:37:00,63.1,60.2,30.17,WSW,258,3.5,5.3,90,0.00,BKN,FEW,0.00,WeatherDisplay:10.37,2013-09-11 18:37:00,
2013-09-11 19:42:00,63.1,60.2,30.18,NW,325,10.4,10.4,90,0.00,BKN,FEW,0.00,WeatherDisplay:10.37,2013-09-11 18:42:00,
2013-09-11 19:47:00,63.1,60.2,30.18,WSW,258,6.9,6.9,90,0.00,BKN,FEW,0.00,WeatherDisplay:10.37,2013-09-11 18:47:00,
2013-09-11 19:52:00,63.1,60.2,30.18,WSW,258,6.9,6.9,90,0.00,BKN,FEW,0.00,WeatherDisplay:10.37,2013-09-11 18:52:00,
2013-09-11 19:57:00,63.1,60.2,30.18,WSW,258,5.8,5.8,90,0.00,BKN,FEW,0.00,WeatherDisplay:10.37,2013-09-11 18:57:00,
2013-09-11 20:02:00,63.1,60.2,30.18,WSW,258,5.8,5.8,90,0.00,BKN,FEW,0.00,WeatherDisplay:10.37,2013-09-11 19:02:00,
2013-09-11 20:07:00,63.0,60.0,30.18,WSW,258,5.8,5.8,90,0.00,BKN,FEW,0.00,WeatherDisplay:10.37,2013-09-11 19:07:00,
2013-09-11 20:12:00,63.0,60.3,30.18,West,280,5.8,5.8,91,0.00,BKN,FEW,0.00,WeatherDisplay:10.37,2013-09-11 19:12:00,
2013-09-11 20:17:00,62.8,60.1,30.18,West,280,6.9,6.9,91,0.00,BKN,FEW,0.00,WeatherDisplay:10.37,2013-09-11 19:17:00,
2013-09-11 20:22:00,62.8,60.1,30.18,West,280,4.6,4.6,91,0.00,BKN,FEW,0.00,WeatherDisplay:10.37,2013-09-11 19:22:00,
2013-09-11 20:27:00,62.8,60.1,30.18,WSW,258,5.8,5.8,91,0.00,BKN,FEW,0.00,WeatherDisplay:10.37,2013-09-11 19:27:00,
2013-09-11 20:33:00,62.6,59.9,30.18,WSW,258,6.9,6.9,91,0.00,BKN,FEW,0.00,WeatherDisplay:10.37,2013-09-11 19:33:00,
2013-09-11 20:38:00,62.4,59.8,30.18,WSW,258,6.9,6.9,91,0.00,BKN,FEW,0.00,WeatherDisplay:10.37,2013-09-11 19:38:00,
2013-09-11 20:43:00,62.4,59.4,30.18,WNW,302,5.8,5.8,90,0.00,BKN,FEW,0.00,WeatherDisplay:10.37,2013-09-11 19:43:00,
2013-09-11 20:48:00,62.4,59.4,30.18,ESE,122,8.8,8.8,90,0.00,BKN,FEW,0.00,WeatherDisplay:10.37,2013-09-11 19:48:00,
2013-09-11 20:53:00,62.4,59.8,30.18,WSW,258,6.9,6.9,91,0.00,BKN,FEW,0.00,WeatherDisplay:10.37,2013-09-11 19:53:00,
2013-09-11 20:58:00,62.2,59.6,30.17,WSW,258,9.2,9.2,91,0.00,BKN,FEW,0.00,WeatherDisplay:10.37,2013-09-11 19:58:00,
2013-09-11 21:03:00,62.2,59.6,30.17,WSW,258,8.1,8.1,91,0.00,BKN,FEW,0.00,WeatherDisplay:10.37,2013-09-11 20:03:00,
2013-09-11 21:08:00,62.4,59.8,30.17,NW,325,2.3,4.7,91,0.00,BKN,FEW,0.00,WeatherDisplay:10.37,2013-09-11 20:08:00,
2013-09-11 21:13:00,62.2,59.6,30.17,ENE,78,6.3,6.3,91,0.00,BKN,FEW,0.00,WeatherDisplay:10.37,2013-09-11 20:13:00,
2013-09-11 21:18:00,62.2,59.6,30.17,NW,325,3.5,3.5,91,0.00,BKN,FEW,0.00,WeatherDisplay:10.37,2013-09-11 20:18:00,
2013-09-11 21:23:00,62.2,59.6,30.17,WSW,258,6.9,6.9,91,0.00,BKN,FEW,0.00,WeatherDisplay:10.37,2013-09-11 20:23:00,
2013-09-11 21:28:00,62.2,59.6,30.17,WSW,258,3.5,3.5,91,0.00,BKN,FEW,0.00,WeatherDisplay:10.37,2013-09-11 20:28:00,
2013-09-11 21:33:00,62.1,59.4,30.17,WSW,258,6.9,6.9,91,0.00,BKN,FEW,0.00,WeatherDisplay:10.37,2013-09-11 20:33:00,
2013-09-11 21:38:00,62.1,59.4,30.17,WNW,302,10.4,10.4,91,0.00,BKN,FEW,0.00,WeatherDisplay:10.37,2013-09-11 20:38:00,
2013-09-11 21:43:00,62.1,59.4,30.17,WSW,258,10.5,10.5,91,0.00,BKN,FEW,0.00,WeatherDisplay:10.37,2013-09-11 20:43:00,
2013-09-11 21:48:00,61.9,59.2,30.17,ESE,122,6.9,6.9,91,0.00,BKN,FEW,0.00,WeatherDisplay:10.37,2013-09-11 20:48:00,
2013-09-11 21:53:00,62.1,59.4,30.17,WSW,258,2.3,4.2,91,0.00,BKN,FEW,0.00,WeatherDisplay:10.37,2013-09-11 20:53:00,
2013-09-11 21:58:00,61.9,59.2,30.17,West,280,5.8,5.8,91,0.00,BKN,FEW,0.00,WeatherDisplay:10.37,2013-09-11 20:58:00,
2013-09-11 22:03:00,61.9,59.2,30.17,WSW,258,6.2,6.2,91,0.00,BKN,FEW,0.00,WeatherDisplay:10.37,2013-09-11 21:03:00,
2013-09-11 22:08:00,61.7,59.0,30.17,WSW,258,3.5,3.6,91,0.00,BKN,FEW,0.00,WeatherDisplay:10.37,2013-09-11 21:08:00,
2013-09-11 22:13:00,61.7,59.0,30.17,West,280,4.6,4.6,91,0.00,BKN,FEW,0.00,WeatherDisplay:10.37,2013-09-11 21:13:00,
2013-09-11 22:18:00,61.7,59.0,30.18,WSW,258,3.5,3.5,91,0.00,BKN,FEW,0.00,WeatherDisplay:10.37,2013-09-11 21:18:00,
2013-09-11 22:23:00,61.7,59.0,30.18,WSW,258,5.8,5.8,91,0.00,BKN,FEW,0.00,WeatherDisplay:10.37,2013-09-11 21:23:00,
2013-09-11 22:28:00,61.7,59.0,30.18,WSW,258,4.6,4.6,91,0.00,BKN,FEW,0.00,WeatherDisplay:10.37,2013-09-11 21:28:00,
2013-09-11 22:33:00,61.7,59.0,30.18,WSW,258,5.8,5.8,91,0.00,BKN,FEW,0.00,WeatherDisplay:10.37,2013-09-11 21:33:00,
2013-09-11 22:38:00,61.7,59.0,30.18,NW,325,6.9,6.9,91,0.00,BKN,FEW,0.00,WeatherDisplay:10.37,2013-09-11 21:38:00,
2013-09-11 22:43:00,61.5,58.9,30.18,WNW,302,3.0,3.1,91,0.00,BKN,FEW,0.00,WeatherDisplay:10.37,2013-09-11 21:43:00,
2013-09-11 22:48:00,61.5,58.9,30.18,West,280,3.5,3.5,91,0.00,BKN,FEW,0.00,WeatherDisplay:10.37,2013-09-11 21:48:00,
2013-09-11 22:53:00,61.7,59.0,30.18,WSW,258,7.2,7.2,91,0.00,BKN,FEW,0.00,WeatherDisplay:10.37,2013-09-11 21:53:00,
2013-09-11 22:58:00,61.7,59.0,30.19,WSW,258,6.9,6.9,91,0.00,BKN,FEW,0.00,WeatherDisplay:10.37,2013-09-11 21:58:00,
2013-09-11 23:04:00,61.5,58.9,30.19,West,280,4.6,4.6,91,0.00,-DZ,FEW,0.00,WeatherDisplay:10.37,2013-09-11 22:04:00,
2013-09-11 23:09:00,61.3,59.0,30.19,WNW,302,5.8,5.8,92,0.00,-DZ,FEW,0.00,WeatherDisplay:10.37,2013-09-11 22:09:00,
2013-09-11 23:14:00,61.3,59.0,30.19,WSW,258,2.3,2.8,92,0.00,-DZ,FEW,0.00,WeatherDisplay:10.37,2013-09-11 22:14:00,
2013-09-11 23:19:00,61.3,59.0,30.18,West,280,4.6,4.6,92,0.00,-DZ,FEW,0.00,WeatherDisplay:10.37,2013-09-11 22:19:00,
2013-09-11 23:24:00,61.3,59.0,30.18,WSW,258,4.6,4.6,92,0.00,-DZ,FEW,0.00,WeatherDisplay:10.37,2013-09-11 22:24:00,
2013-09-11 23:29:00,61.3,59.0,30.18,WNW,302,4.6,4.6,92,0.00,-DZ,FEW,0.00,WeatherDisplay:10.37,2013-09-11 22:29:00,
2013-09-11 23:34:00,61.0,58.6,30.18,WSW,258,3.5,3.5,92,0.00,-DZ,FEW,0.00,WeatherDisplay:10.37,2013-09-11 22:34:00,
2013-09-11 23:39:00,61.0,58.6,30.17,WSW,258,4.6,4.6,92,0.00,-DZ,FEW,0.00,WeatherDisplay:10.37,2013-09-11 22:39:00,
2013-09-11 23:44:00,61.0,58.6,30.17,West,280,4.6,4.6,92,0.00,-DZ,FEW,0.00,WeatherDisplay:10.37,2013-09-11 22:44:00,
2013-09-11 23:49:00,61.0,58.6,30.17,WSW,258,3.5,3.5,92,0.00,-DZ,FEW,0.00,WeatherDisplay:10.37,2013-09-11 22:49:00,
2013-09-11 23:54:00,61.0,58.6,30.17,WSW,258,2.3,2.3,92,0.00,-DZ,FEW,0.00,WeatherDisplay:10.37,2013-09-11 22:54:00,
2013-09-11 23:59:00,61.0,58.9,30.17,NW,325,3.5,3.5,93,0.00,-DZ,FEW,0.00,WeatherDisplay:10.37,2013-09-11 22:59:00,